カタログに戻る

DELTA 1 DEB

運用中SSO
NORAD 13565·DEBRIS·🇺🇸 United States

打ち上げ Mar 5, 1978 から Vandenberg Space Force Base

Loading…

次のパス (今後24時間)

TLE

最新Source: Space-Track

元期: Sep 13, 2026, 08:39 UTC

1 13565U 78026FC  26256.36063317  .00000044  00000-0  61059-4 0  9996
2 13565  98.8698 210.3062 0067846  68.5267  83.1352 13.96665920249104

AllMySatでDELTA 1 DEBをリアルタイム追跡

Download on the App Store